Tracking 35237 objects as of 5-Sep-2026
HD Live streaming from Space Station
objects crossing your sky now

COSMOS 1662 DEB


COSMOS 1662 DEB is no longer on orbit


NORAD ID: 16959
Int'l Code: 1985-050V
Launch date: June 19, 1985
Source: Commonwealth of Independent States (former USSR) (CIS)
Launch site: TYURATAM MISSILE AND SPACE COMPLEX (TTMTR)
Decay date: 1988-05-26

Note: This is SATELLITE DEBRIS
Your satellite tracking list
Your tracking list is empty




NASA's NSSDC Master Catalog

Two Line Element Set (TLE):
1 16959U 85050  V 88146.45520356  .03874303 +70000-5 +25342-2 0  9993
2 16959 065.8021 258.8973 0017039 307.1235 053.7363 16.16519297056608
Source of the keplerian elements: AFSPC